• En España
  • Lista de países
  • Para 7 días
  • Temperatura del agua
  • Mapa Satelital
  • El tiempo en el mapa
  • Informadores
  • user-avatar
    Iniciar sesión

    Tiempo cada hora Kaprun

    Hoy, 22 Agosto, Martes

    Tiempo Temperatura Precipitaciones Viento Presión Humedad
    00:00 +3°C° 0 mm 1 mps 600 mmHg 94%
    01:00 +2°C° 0 mm 1 mps 600 mmHg 92%
    02:00 +2°C° 0 mm 1 mps 600 mmHg 91%
    03:00 +2°C° 0 mm 1 mps 600 mmHg 90%
    04:00 +2°C° 0 mm 1 mps 599 mmHg 89%
    05:00 +3°C° 0 mm 1 mps 600 mmHg 84%
    06:00 +5°C° 0 mm 1 mps 601 mmHg 79%
    07:00 +7°C° 0 mm 1 mps 602 mmHg 74%
    08:00 +9°C° 0 mm 1 mps 602 mmHg 66%
    09:00 +11°C° 0 mm 1 mps 603 mmHg 58%
    10:00 +13°C° 0 mm 1 mps 604 mmHg 50%
    11:00 +14°C° 0 mm 1 mps 604 mmHg 48%
    12:00 +15°C° 0 mm 2 mps 604 mmHg 45%
    13:00 +16°C° 0 mm 2 mps 604 mmHg 43%
    14:00 +16°C° 0 mm 2 mps 604 mmHg 46%
    15:00 +15°C° 0 mm 2 mps 603 mmHg 48%
    16:00 +15°C° 0 mm 2 mps 603 mmHg 51%
    17:00 +13°C° 0 mm 2 mps 602 mmHg 64%
    18:00 +10°C° 0 mm 1 mps 601 mmHg 76%
    19:00 +8°C° 0 mm 1 mps 600 mmHg 89%
    20:00 +7°C° 0 mm 1 mps 600 mmHg 91%
    21:00 +7°C° 0 mm 1 mps 600 mmHg 94%
    22:00 +6°C° 0 mm 1 mps 599 mmHg 96%
    23:00 +6°C° 0 mm 1 mps 599 mmHg 96%

    Mañana, 23 Agosto, Miércoles

    Tiempo Temperatura Precipitaciones Viento Presión Humedad
    00:00 +5°C° 0 mm 1 mps 599 mmHg 96%
    01:00 +5°C° 0 mm 1 mps 599 mmHg 96%
    02:00 +5°C° 0 mm 1 mps 599 mmHg 95%
    03:00 +5°C° 0 mm 1 mps 599 mmHg 95%
    04:00 +5°C° 0 mm 1 mps 598 mmHg 94%
    05:00 +6°C° 0 mm 1 mps 599 mmHg 89%
    06:00 +7°C° 0 mm 1 mps 600 mmHg 84%
    07:00 +8°C° 0 mm 1 mps 601 mmHg 78%
    08:00 +11°C° 0 mm 1 mps 602 mmHg 68%
    09:00 +14°C° 0 mm 1 mps 603 mmHg 58%
    10:00 +16°C° 0 mm 1 mps 604 mmHg 48%
    11:00 +16°C° 0 mm 1 mps 604 mmHg 47%
    12:00 +17°C° 0 mm 2 mps 604 mmHg 46%
    13:00 +17°C° 0 mm 2 mps 604 mmHg 45%
    14:00 +17°C° 0,4 mm 2 mps 604 mmHg 50%
    15:00 +17°C° 0,4 mm 2 mps 603 mmHg 54%
    16:00 +16°C° 0,4 mm 2 mps 603 mmHg 59%
    17:00 +14°C° 0,9 mm 2 mps 602 mmHg 68%
    18:00 +12°C° 0,9 mm 1 mps 601 mmHg 78%
    19:00 +10°C° 0,9 mm 1 mps 601 mmHg 87%
    20:00 +9°C° 0,1 mm 1 mps 601 mmHg 87%
    21:00 +8°C° 0,1 mm 1 mps 601 mmHg 88%
    22:00 +8°C° 0,1 mm 1 mps 601 mmHg 88%
    23:00 +7°C° 0 mm 1 mps 600 mmHg 87%

    Pasado mañana, 24 Agosto, Jueves

    Tiempo Temperatura Precipitaciones Viento Presión Humedad
    00:00 +7°C° 0 mm 1 mps 600 mmHg 85%
    01:00 +7°C° 0 mm 1 mps 600 mmHg 83%
    02:00 +7°C° 0 mm 1 mps 600 mmHg 81%
    03:00 +7°C° 0 mm 1 mps 600 mmHg 79%
    04:00 +7°C° 0 mm 1 mps 600 mmHg 77%
    05:00 +8°C° 0 mm 1 mps 600 mmHg 75%
    06:00 +9°C° 0 mm 1 mps 601 mmHg 72%
    07:00 +11°C° 0 mm 1 mps 602 mmHg 70%
    08:00 +14°C° 0 mm 1 mps 603 mmHg 62%
    09:00 +16°C° 0 mm 1 mps 604 mmHg 53%
    10:00 +18°C° 0 mm 0 mps 606 mmHg 44%
    11:00 +21°C° 0 mm 1 mps 606 mmHg 43%
    12:00 +21°C° 0 mm 1 mps 606 mmHg 41%
    13:00 +22°C° 0 mm 1 mps 606 mmHg 39%
    14:00 +21°C° 0,2 mm 1 mps 605 mmHg 45%
    15:00 +20°C° 0,2 mm 1 mps 605 mmHg 51%
    16:00 +19°C° 0,2 mm 1 mps 604 mmHg 57%
    17:00 +16°C° 1,2 mm 1 mps 603 mmHg 68%
    18:00 +14°C° 1,2 mm 1 mps 603 mmHg 80%
    19:00 +11°C° 1,2 mm 0 mps 602 mmHg 91%
    20:00 +11°C° 0,4 mm 1 mps 602 mmHg 92%
    21:00 +10°C° 0,4 mm 1 mps 602 mmHg 93%
    22:00 +10°C° 0,4 mm 1 mps 602 mmHg 93%
    23:00 +10°C° 0,1 mm 1 mps 602 mmHg 93%

    25 Agosto, Viernes

    Tiempo Temperatura Precipitaciones Viento Presión Humedad
    00:00 +9°C° 0,1 mm 1 mps 602 mmHg 93%
    01:00 +9°C° 0,1 mm 1 mps 602 mmHg 93%
    02:00 +9°C° 0,1 mm 1 mps 601 mmHg 93%
    03:00 +9°C° 0,1 mm 1 mps 601 mmHg 92%
    04:00 +9°C° 0,1 mm 1 mps 601 mmHg 92%
    05:00 +9°C° 0 mm 1 mps 602 mmHg 89%
    06:00 +10°C° 0 mm 1 mps 602 mmHg 86%
    07:00 +11°C° 0 mm 1 mps 603 mmHg 84%
    08:00 +14°C° 0 mm 1 mps 604 mmHg 73%
    09:00 +16°C° 0 mm 1 mps 605 mmHg 62%
    10:00 +18°C° 0 mm 0 mps 606 mmHg 51%
    11:00 +21°C° 0,1 mm 1 mps 606 mmHg 49%
    12:00 +21°C° 0,1 mm 1 mps 606 mmHg 46%
    13:00 +22°C° 0,1 mm 1 mps 606 mmHg 44%
    14:00 +21°C° 0,4 mm 1 mps 605 mmHg 49%
    15:00 +20°C° 0,4 mm 1 mps 605 mmHg 54%
    16:00 +20°C° 0,4 mm 1 mps 605 mmHg 59%
    17:00 +18°C° 0,6 mm 1 mps 604 mmHg 68%
    18:00 +14°C° 0,6 mm 1 mps 603 mmHg 77%
    19:00 +11°C° 0,6 mm 0 mps 602 mmHg 86%
    20:00 +12°C° 0,2 mm 1 mps 602 mmHg 86%
    21:00 +11°C° 0,2 mm 1 mps 602 mmHg 86%
    22:00 +11°C° 0,2 mm 1 mps 602 mmHg 86%
    23:00 +10°C° 0 mm 1 mps 602 mmHg 85%

    26 Agosto, Sábado

    Tiempo Temperatura Precipitaciones Viento Presión Humedad
    00:00 +10°C° 0 mm 1 mps 602 mmHg 84%
    01:00 +10°C° 0 mm 1 mps 602 mmHg 83%
    02:00 +10°C° 0 mm 1 mps 601 mmHg 82%
    03:00 +10°C° 0 mm 1 mps 601 mmHg 80%
    04:00 +10°C° 0 mm 1 mps 601 mmHg 79%
    05:00 +11°C° 0 mm 1 mps 602 mmHg 77%
    06:00 +12°C° 0 mm 1 mps 602 mmHg 75%
    07:00 +13°C° 0 mm 1 mps 603 mmHg 73%
    08:00 +16°C° 0 mm 1 mps 604 mmHg 63%
    09:00 +19°C° 0 mm 1 mps 605 mmHg 53%
    10:00 +22°C° 0 mm 1 mps 606 mmHg 43%
    11:00 +22°C° 0,1 mm 1 mps 606 mmHg 41%
    12:00 +23°C° 0,1 mm 1 mps 606 mmHg 40%
    13:00 +24°C° 0,1 mm 2 mps 606 mmHg 38%
    14:00 +23°C° 0 mm 2 mps 606 mmHg 42%
    15:00 +21°C° 0 mm 2 mps 605 mmHg 45%
    16:00 +21°C° 0 mm 2 mps 605 mmHg 48%
    17:00 +19°C° 0,4 mm 2 mps 604 mmHg 60%
    18:00 +16°C° 0,4 mm 1 mps 603 mmHg 71%
    19:00 +14°C° 0,4 mm 1 mps 602 mmHg 82%
    20:00 +13°C° 0,1 mm 1 mps 602 mmHg 82%
    21:00 +13°C° 0,1 mm 1 mps 602 mmHg 81%
    22:00 +12°C° 0,1 mm 1 mps 602 mmHg 81%
    23:00 +11°C° 0 mm 1 mps 602 mmHg 80%

    27 Agosto, Domingo

    Tiempo Temperatura Precipitaciones Viento Presión Humedad
    00:00 +11°C° 0 mm 1 mps 601 mmHg 78%
    01:00 +10°C° 0 mm 1 mps 601 mmHg 77%
    02:00 +10°C° 0,1 mm 1 mps 601 mmHg 76%
    03:00 +10°C° 0,1 mm 1 mps 601 mmHg 75%
    04:00 +9°C° 0,1 mm 1 mps 600 mmHg 74%
    05:00 +10°C° 0,2 mm 1 mps 601 mmHg 73%
    06:00 +11°C° 0,2 mm 1 mps 602 mmHg 72%
    07:00 +13°C° 0,2 mm 1 mps 602 mmHg 71%
    08:00 +15°C° 0 mm 1 mps 603 mmHg 61%
    09:00 +17°C° 0 mm 0 mps 604 mmHg 52%
    10:00 +20°C° 0 mm 0 mps 605 mmHg 42%
    11:00 +20°C° 0 mm 0 mps 605 mmHg 40%
    12:00 +23°C° 0 mm 1 mps 605 mmHg 39%
    13:00 +24°C° 0 mm 1 mps 605 mmHg 37%
    14:00 +23°C° 0 mm 1 mps 605 mmHg 40%
    15:00 +23°C° 0 mm 1 mps 605 mmHg 42%
    16:00 +22°C° 0 mm 1 mps 604 mmHg 45%
    17:00 +20°C° 0,2 mm 1 mps 603 mmHg 58%
    18:00 +15°C° 0,2 mm 0 mps 602 mmHg 70%
    19:00 +13°C° 0,2 mm 0 mps 601 mmHg 82%
    20:00 +12°C° 0,2 mm 0 mps 601 mmHg 81%
    21:00 +13°C° 0,2 mm 1 mps 602 mmHg 80%
    22:00 +13°C° 0,2 mm 1 mps 602 mmHg 78%
    23:00 +12°C° 0,2 mm 1 mps 601 mmHg 78%
    Mostrar más